contact:dominique.lefevre@mio.osupytheas.fr, maurice.libes@osupytheas.fr, didier.mallarino@osupytheas.fr
Project:EMSO http://www.emso-fr.org/EMSO-France
Depth: 2436.0 m
Title:EMSO Ligure Ouest : Data MII capteur CSTAR
DateTime,Latitude,Longitude,Instrument_Serial,Reference_Counts,Signal_Counts,Corrected_Signal_raw_counts,Calculated_Beam_c_inverse_meters,Internal_thermistor_counts
DateTime,Latitude,Longitude,Instrument_Serial,Reference_Counts,Signal_Counts,Corrected_Signal_raw_counts,Calculated_Beam_c_inverse_meters,Internal_thermistor_counts
2021-12-16T00:00:07,42.805,6.029,CST-1368DR,5057,6525,13797,0.495,551
2021-12-16T00:03:09,42.805,6.029,CST-1368DR,5057,6525,13797,0.495,551
2021-12-16T00:06:10,42.805,6.029,CST-1368DR,5057,6524,13796,0.496,551
2021-12-16T00:09:12,42.805,6.029,CST-1368DR,5057,6525,13797,0.495,551
2021-12-16T00:12:14,42.805,6.029,CST-1368DR,5057,6525,13797,0.495,551
2021-12-16T00:15:15,42.805,6.029,CST-1368DR,5057,6524,13796,0.496,551
2021-12-16T00:18:17,42.805,6.029,CST-1368DR,5057,6524,13795,0.496,551
2021-12-16T00:21:18,42.805,6.029,CST-1368DR,5057,6524,13796,0.496,551
2021-12-16T00:24:20,42.805,6.029,CST-1368DR,5057,6524,13796,0.496,551
2021-12-16T00:27:21,42.805,6.029,CST-1368DR,5057,6524,13795,0.496,551
2021-12-16T00:30:23,42.805,6.029,CST-1368DR,5057,6524,13795,0.496,551
2021-12-16T00:33:25,42.805,6.029,CST-1368DR,5057,6524,13796,0.496,550
2021-12-16T00:36:26,42.805,6.029,CST-1368DR,5057,6524,13795,0.496,551
2021-12-16T00:39:28,42.805,6.029,CST-1368DR,5057,6524,13795,0.496,551
2021-12-16T00:42:29,42.805,6.029,CST-1368DR,5057,6524,13796,0.496,551
2021-12-16T00:45:31,42.805,6.029,CST-1368DR,5056,6524,13798,0.495,551
2021-12-16T00:48:33,42.805,6.029,CST-1368DR,5056,6523,13795,0.496,551
2021-12-16T00:51:34,42.805,6.029,CST-1368DR,5057,6524,13795,0.496,551
2021-12-16T00:54:36,42.805,6.029,CST-1368DR,5056,6524,13798,0.495,551
2021-12-16T00:57:37,42.805,6.029,CST-1368DR,5056,6523,13796,0.496,551
2021-12-16T01:00:39,42.805,6.029,CST-1368DR,5056,6524,13797,0.495,551
2021-12-16T01:03:40,42.805,6.029,CST-1368DR,5056,6523,13795,0.496,551
2021-12-16T01:06:42,42.805,6.029,CST-1368DR,5056,6523,13796,0.496,551
2021-12-16T01:09:44,42.805,6.029,CST-1368DR,5056,6523,13796,0.496,551
2021-12-16T01:12:45,42.805,6.029,CST-1368DR,5056,6522,13793,0.497,551
2021-12-16T01:15:47,42.805,6.029,CST-1368DR,5056,6522,13795,0.496,551
2021-12-16T01:18:48,42.805,6.029,CST-1368DR,5056,6523,13795,0.496,551
2021-12-16T01:21:50,42.805,6.029,CST-1368DR,5056,6522,13795,0.496,551
2021-12-16T01:24:51,42.805,6.029,CST-1368DR,5056,6523,13796,0.496,551
2021-12-16T01:27:53,42.805,6.029,CST-1368DR,5056,6523,13796,0.496,551
2021-12-16T01:30:55,42.805,6.029,CST-1368DR,5056,6522,13795,0.496,551
2021-12-16T01:33:56,42.805,6.029,CST-1368DR,5056,6522,13794,0.496,551
2021-12-16T01:36:58,42.805,6.029,CST-1368DR,5056,6521,13792,0.497,551
2021-12-16T01:39:59,42.805,6.029,CST-1368DR,5056,6522,13795,0.496,551
2021-12-16T01:43:01,42.805,6.029,CST-1368DR,5056,6522,13795,0.496,551
2021-12-16T01:46:03,42.805,6.029,CST-1368DR,5056,6522,13794,0.496,551
2021-12-16T01:49:04,42.805,6.029,CST-1368DR,5056,6522,13793,0.497,551
2021-12-16T01:52:06,42.805,6.029,CST-1368DR,5055,6520,13792,0.497,551
2021-12-16T01:55:07,42.805,6.029,CST-1368DR,5056,6522,13793,0.497,551
2021-12-16T01:58:09,42.805,6.029,CST-1368DR,5056,6522,13795,0.496,551
2021-12-16T02:01:10,42.805,6.029,CST-1368DR,5055,6522,13797,0.495,551
2021-12-16T02:04:12,42.805,6.029,CST-1368DR,5055,6522,13797,0.495,551
2021-12-16T02:07:14,42.805,6.029,CST-1368DR,5055,6522,13796,0.496,551
2021-12-16T02:10:15,42.805,6.029,CST-1368DR,5055,6522,13796,0.496,551
2021-12-16T02:13:17,42.805,6.029,CST-1368DR,5055,6521,13793,0.497,551
2021-12-16T02:16:18,42.805,6.029,CST-1368DR,5055,6521,13794,0.496,551
2021-12-16T02:19:20,42.805,6.029,CST-1368DR,5055,6521,13794,0.496,551
2021-12-16T02:22:22,42.805,6.029,CST-1368DR,5055,6521,13794,0.496,551
2021-12-16T02:25:23,42.805,6.029,CST-1368DR,5055,6522,13796,0.496,551
2021-12-16T02:28:25,42.805,6.029,CST-1368DR,5055,6521,13794,0.496,551
2021-12-16T02:31:26,42.805,6.029,CST-1368DR,5055,6521,13795,0.496,551
2021-12-16T02:34:28,42.805,6.029,CST-1368DR,5055,6521,13794,0.496,551
2021-12-16T02:37:29,42.805,6.029,CST-1368DR,5055,6521,13793,0.497,551
2021-12-16T02:40:31,42.805,6.029,CST-1368DR,5055,6521,13793,0.497,551
2021-12-16T02:43:33,42.805,6.029,CST-1368DR,5055,6520,13793,0.497,551
2021-12-16T02:46:34,42.805,6.029,CST-1368DR,5055,6521,13794,0.496,551
2021-12-16T02:49:36,42.805,6.029,CST-1368DR,5055,6520,13793,0.497,551
2021-12-16T02:52:37,42.805,6.029,CST-1368DR,5055,6521,13794,0.496,551
2021-12-16T02:55:39,42.805,6.029,CST-1368DR,5055,6520,13793,0.497,551
2021-12-16T02:58:41,42.805,6.029,CST-1368DR,5055,6521,13793,0.497,551
2021-12-16T03:01:42,42.805,6.029,CST-1368DR,5055,6521,13793,0.497,551
2021-12-16T03:04:44,42.805,6.029,CST-1368DR,5055,6520,13791,0.497,551
2021-12-16T03:07:45,42.805,6.029,CST-1368DR,5055,6521,13793,0.497,551
2021-12-16T03:10:47,42.805,6.029,CST-1368DR,5054,6519,13792,0.497,551
2021-12-16T03:13:48,42.805,6.029,CST-1368DR,5054,6521,13796,0.496,551
2021-12-16T03:16:50,42.805,6.029,CST-1368DR,5054,6521,13796,0.496,551
2021-12-16T03:19:52,42.805,6.029,CST-1368DR,5054,6520,13795,0.496,551
2021-12-16T03:22:53,42.805,6.029,CST-1368DR,5054,6520,13794,0.496,551
2021-12-16T03:25:55,42.805,6.029,CST-1368DR,5054,6519,13793,0.497,551
2021-12-16T03:28:56,42.805,6.029,CST-1368DR,5054,6520,13795,0.496,551
2021-12-16T03:31:58,42.805,6.029,CST-1368DR,5054,6519,13793,0.497,551
2021-12-16T03:34:59,42.805,6.029,CST-1368DR,5054,6520,13795,0.496,551
2021-12-16T03:38:01,42.805,6.029,CST-1368DR,5054,6520,13795,0.496,551
2021-12-16T03:41:03,42.805,6.029,CST-1368DR,5054,6520,13795,0.496,551
2021-12-16T03:44:04,42.805,6.029,CST-1368DR,5054,6520,13795,0.496,551
2021-12-16T03:47:06,42.805,6.029,CST-1368DR,5054,6519,13793,0.497,551
2021-12-16T03:50:07,42.805,6.029,CST-1368DR,5054,6519,13793,0.497,551
2021-12-16T03:53:09,42.805,6.029,CST-1368DR,5054,6519,13793,0.497,551
2021-12-16T03:56:11,42.805,6.029,CST-1368DR,5054,6519,13793,0.497,551
2021-12-16T03:59:12,42.805,6.029,CST-1368DR,5054,6520,13794,0.496,551
2021-12-16T04:02:14,42.805,6.029,CST-1368DR,5054,6518,13790,0.497,551
2021-12-16T04:05:15,42.805,6.029,CST-1368DR,5054,6519,13792,0.497,551
2021-12-16T04:08:17,42.805,6.029,CST-1368DR,5054,6519,13793,0.497,551
2021-12-16T04:11:18,42.805,6.029,CST-1368DR,5054,6519,13792,0.497,551
2021-12-16T04:14:20,42.805,6.029,CST-1368DR,5054,6519,13792,0.497,551
2021-12-16T04:17:22,42.805,6.029,CST-1368DR,5053,6519,13795,0.496,551
2021-12-16T04:20:23,42.805,6.029,CST-1368DR,5053,6518,13794,0.496,551
2021-12-16T04:23:25,42.805,6.029,CST-1368DR,5053,6518,13794,0.496,551
2021-12-16T04:26:26,42.805,6.029,CST-1368DR,5053,6517,13792,0.497,551
2021-12-16T04:29:28,42.805,6.029,CST-1368DR,5053,6519,13794,0.496,551
2021-12-16T04:32:30,42.805,6.029,CST-1368DR,5053,6517,13791,0.497,551
2021-12-16T04:35:31,42.805,6.029,CST-1368DR,5053,6518,13793,0.497,551
2021-12-16T04:38:33,42.805,6.029,CST-1368DR,5053,6518,13794,0.496,551
2021-12-16T04:41:34,42.805,6.029,CST-1368DR,5053,6518,13793,0.497,551
2021-12-16T04:44:36,42.805,6.029,CST-1368DR,5053,6517,13791,0.497,551
2021-12-16T04:47:37,42.805,6.029,CST-1368DR,5053,6518,13794,0.496,551
2021-12-16T04:50:39,42.805,6.029,CST-1368DR,5053,6519,13794,0.496,551
2021-12-16T04:53:41,42.805,6.029,CST-1368DR,5053,6519,13794,0.496,551
2021-12-16T04:56:42,42.805,6.029,CST-1368DR,5053,6518,13793,0.497,551
2021-12-16T04:59:44,42.805,6.029,CST-1368DR,5053,6518,13793,0.497,551
2021-12-16T05:02:45,42.805,6.029,CST-1368DR,5053,6518,13793,0.497,551
2021-12-16T05:05:47,42.805,6.029,CST-1368DR,5053,6517,13791,0.497,551
2021-12-16T05:08:48,42.805,6.029,CST-1368DR,5053,6518,13792,0.497,551
2021-12-16T05:11:50,42.805,6.029,CST-1368DR,5053,6518,13794,0.496,551
2021-12-16T05:14:52,42.805,6.029,CST-1368DR,5053,6516,13788,0.498,551
2021-12-16T05:17:53,42.805,6.029,CST-1368DR,5053,6517,13791,0.497,551
2021-12-16T05:20:55,42.805,6.029,CST-1368DR,5053,6518,13792,0.497,551
2021-12-16T05:23:56,42.805,6.029,CST-1368DR,5053,6516,13789,0.498,551
2021-12-16T05:26:58,42.805,6.029,CST-1368DR,5053,6517,13791,0.497,551
2021-12-16T05:30:00,42.805,6.029,CST-1368DR,5053,6516,13790,0.497,551
2021-12-16T05:33:01,42.805,6.029,CST-1368DR,5053,6517,13791,0.497,551
2021-12-16T05:36:03,42.805,6.029,CST-1368DR,5053,6514,13785,0.499,551
2021-12-16T05:39:04,42.805,6.029,CST-1368DR,5053,6516,13789,0.498,551
2021-12-16T05:42:06,42.805,6.029,CST-1368DR,5053,6517,13791,0.497,551
2021-12-16T05:45:07,42.805,6.029,CST-1368DR,5053,6518,13792,0.497,551
2021-12-16T05:48:09,42.805,6.029,CST-1368DR,5053,6516,13789,0.498,550
2021-12-16T05:51:11,42.805,6.029,CST-1368DR,5053,6517,13791,0.497,551
2021-12-16T05:54:12,42.805,6.029,CST-1368DR,5053,6516,13788,0.498,551
2021-12-16T05:57:14,42.805,6.029,CST-1368DR,5053,6516,13790,0.497,551
2021-12-16T06:00:15,42.805,6.029,CST-1368DR,5052,6515,13790,0.497,551
2021-12-16T06:03:17,42.805,6.029,CST-1368DR,5052,6515,13790,0.497,551
2021-12-16T06:06:19,42.805,6.029,CST-1368DR,5052,6516,13791,0.497,551
2021-12-16T06:09:20,42.805,6.029,CST-1368DR,5052,6517,13793,0.497,551
2021-12-16T06:12:22,42.805,6.029,CST-1368DR,5052,6515,13790,0.497,551
2021-12-16T06:15:23,42.805,6.029,CST-1368DR,5052,6515,13790,0.497,551
2021-12-16T06:18:25,42.805,6.029,CST-1368DR,5052,6516,13791,0.497,551
2021-12-16T06:21:26,42.805,6.029,CST-1368DR,5052,6516,13791,0.497,551
2021-12-16T06:24:28,42.805,6.029,CST-1368DR,5052,6516,13791,0.497,551
2021-12-16T06:27:30,42.805,6.029,CST-1368DR,5052,6515,13789,0.498,551
2021-12-16T06:30:31,42.805,6.029,CST-1368DR,5052,6516,13791,0.497,551
2021-12-16T06:33:33,42.805,6.029,CST-1368DR,5052,6516,13792,0.497,551
2021-12-16T06:36:34,42.805,6.029,CST-1368DR,5052,6516,13792,0.497,551
2021-12-16T06:39:36,42.805,6.029,CST-1368DR,5052,6515,13790,0.497,551
2021-12-16T06:42:38,42.805,6.029,CST-1368DR,5052,6514,13788,0.498,551
2021-12-16T06:45:39,42.805,6.029,CST-1368DR,5052,6515,13789,0.498,551
2021-12-16T06:48:41,42.805,6.029,CST-1368DR,5052,6515,13789,0.498,551
2021-12-16T06:51:42,42.805,6.029,CST-1368DR,5052,6515,13790,0.497,551
2021-12-16T06:54:44,42.805,6.029,CST-1368DR,5052,6514,13788,0.498,551
2021-12-16T06:57:45,42.805,6.029,CST-1368DR,5052,6515,13789,0.498,551
2021-12-16T07:00:47,42.805,6.029,CST-1368DR,5052,6515,13789,0.498,551
2021-12-16T07:03:49,42.805,6.029,CST-1368DR,5052,6514,13788,0.498,551
2021-12-16T07:06:50,42.805,6.029,CST-1368DR,5052,6514,13787,0.498,551
2021-12-16T07:09:52,42.805,6.029,CST-1368DR,5052,6514,13788,0.498,551
2021-12-16T07:12:53,42.805,6.029,CST-1368DR,5052,6514,13787,0.498,551
2021-12-16T07:15:55,42.805,6.029,CST-1368DR,5052,6513,13785,0.499,551
2021-12-16T07:18:56,42.805,6.029,CST-1368DR,5052,6515,13789,0.498,551
2021-12-16T07:21:58,42.805,6.029,CST-1368DR,5052,6515,13789,0.498,551
2021-12-16T07:25:00,42.805,6.029,CST-1368DR,5052,6514,13787,0.498,551
2021-12-16T07:28:01,42.805,6.029,CST-1368DR,5052,6513,13784,0.499,551
2021-12-16T07:31:03,42.805,6.029,CST-1368DR,5052,6513,13786,0.499,551
2021-12-16T07:34:04,42.805,6.029,CST-1368DR,5052,6514,13786,0.499,551
2021-12-16T07:37:06,42.805,6.029,CST-1368DR,5052,6514,13787,0.498,551
2021-12-16T07:40:08,42.805,6.029,CST-1368DR,5052,6514,13787,0.498,551
2021-12-16T07:43:09,42.805,6.029,CST-1368DR,5052,6514,13787,0.498,551
2021-12-16T07:46:11,42.805,6.029,CST-1368DR,5051,6513,13787,0.498,551
2021-12-16T07:49:12,42.805,6.029,CST-1368DR,5051,6513,13788,0.498,551
2021-12-16T07:52:14,42.805,6.029,CST-1368DR,5051,6513,13787,0.498,551
2021-12-16T07:55:15,42.805,6.029,CST-1368DR,5052,6514,13788,0.498,551
2021-12-16T07:58:17,42.805,6.029,CST-1368DR,5051,6513,13787,0.498,551
2021-12-16T08:01:19,42.805,6.029,CST-1368DR,5051,6513,13787,0.498,551
2021-12-16T08:04:20,42.805,6.029,CST-1368DR,5051,6513,13787,0.498,551
2021-12-16T08:07:22,42.805,6.029,CST-1368DR,5051,6513,13787,0.498,551
2021-12-16T08:10:23,42.805,6.029,CST-1368DR,5051,6514,13790,0.497,551
2021-12-16T08:13:25,42.805,6.029,CST-1368DR,5051,6512,13785,0.499,551
2021-12-16T08:16:27,42.805,6.029,CST-1368DR,5051,6511,13783,0.499,551
2021-12-16T08:19:28,42.805,6.029,CST-1368DR,5051,6513,13787,0.498,551
2021-12-16T08:22:30,42.805,6.029,CST-1368DR,5051,6509,13779,0.501,551
2021-12-16T08:25:31,42.805,6.029,CST-1368DR,5051,6510,13782,0.500,551
2021-12-16T08:28:33,42.805,6.029,CST-1368DR,5051,6511,13783,0.499,551
2021-12-16T08:31:34,42.805,6.029,CST-1368DR,5051,6482,13721,0.517,551
2021-12-16T08:34:36,42.805,6.029,CST-1368DR,5051,6511,13783,0.499,551
2021-12-16T08:37:38,42.805,6.029,CST-1368DR,5051,6511,13784,0.499,551
2021-12-16T08:40:39,42.805,6.029,CST-1368DR,5051,6512,13785,0.499,551
2021-12-16T08:43:41,42.805,6.029,CST-1368DR,5051,6512,13785,0.499,551
2021-12-16T08:46:42,42.805,6.029,CST-1368DR,5051,6511,13783,0.499,551
2021-12-16T08:49:44,42.805,6.029,CST-1368DR,5051,6511,13784,0.499,551
2021-12-16T08:52:45,42.805,6.029,CST-1368DR,5051,6512,13785,0.499,551
2021-12-16T08:55:47,42.805,6.029,CST-1368DR,5051,6511,13784,0.499,551
2021-12-16T08:58:49,42.805,6.029,CST-1368DR,5051,6511,13783,0.499,551
2021-12-16T09:01:50,42.805,6.029,CST-1368DR,5051,6511,13784,0.499,551
2021-12-16T09:04:52,42.805,6.029,CST-1368DR,5051,6511,13784,0.499,551
2021-12-16T09:07:53,42.805,6.029,CST-1368DR,5051,6511,13784,0.499,551
2021-12-16T09:10:55,42.805,6.029,CST-1368DR,5051,6511,13784,0.499,551
2021-12-16T09:13:57,42.805,6.029,CST-1368DR,5051,6511,13783,0.499,551
2021-12-16T09:16:58,42.805,6.029,CST-1368DR,5051,6511,13783,0.499,551
2021-12-16T09:20:00,42.805,6.029,CST-1368DR,5051,6511,13783,0.499,551
2021-12-16T09:23:01,42.805,6.029,CST-1368DR,5051,6511,13783,0.499,551
2021-12-16T09:26:03,42.805,6.029,CST-1368DR,5051,6509,13779,0.501,551
2021-12-16T09:29:04,42.805,6.029,CST-1368DR,5051,6510,13781,0.500,551
2021-12-16T09:32:06,42.805,6.029,CST-1368DR,5051,6510,13782,0.500,551
2021-12-16T09:35:08,42.805,6.029,CST-1368DR,5051,6511,13783,0.499,551
2021-12-16T09:38:09,42.805,6.029,CST-1368DR,5051,6510,13781,0.500,551
2021-12-16T09:41:11,42.805,6.029,CST-1368DR,5050,6510,13785,0.499,551
2021-12-16T09:44:12,42.805,6.029,CST-1368DR,5050,6508,13780,0.500,551
2021-12-16T09:47:14,42.805,6.029,CST-1368DR,5050,6509,13782,0.500,551
2021-12-16T09:50:16,42.805,6.029,CST-1368DR,5050,6508,13780,0.500,551
2021-12-16T09:53:17,42.805,6.029,CST-1368DR,5050,6509,13783,0.499,551
2021-12-16T09:56:19,42.805,6.029,CST-1368DR,5050,6509,13782,0.500,551
2021-12-16T09:59:20,42.805,6.029,CST-1368DR,5050,6510,13783,0.499,551
2021-12-16T10:02:22,42.805,6.029,CST-1368DR,5050,6510,13783,0.499,551
2021-12-16T10:05:23,42.805,6.029,CST-1368DR,5050,6509,13782,0.500,551
2021-12-16T10:08:25,42.805,6.029,CST-1368DR,5050,6510,13783,0.499,551
2021-12-16T10:11:27,42.805,6.029,CST-1368DR,5050,6509,13782,0.500,551
2021-12-16T10:14:28,42.805,6.029,CST-1368DR,5050,6508,13780,0.500,551
2021-12-16T10:17:30,42.805,6.029,CST-1368DR,5050,6509,13782,0.500,551
2021-12-16T10:20:31,42.805,6.029,CST-1368DR,5050,6506,13775,0.502,551
2021-12-16T10:23:33,42.805,6.029,CST-1368DR,5050,6509,13781,0.500,551
2021-12-16T10:26:35,42.805,6.029,CST-1368DR,5050,6508,13779,0.501,551
2021-12-16T10:29:36,42.805,6.029,CST-1368DR,5050,6508,13780,0.500,551
2021-12-16T10:32:38,42.805,6.029,CST-1368DR,5050,6509,13782,0.500,551
2021-12-16T10:35:39,42.805,6.029,CST-1368DR,5050,6508,13780,0.500,551
2021-12-16T10:38:41,42.805,6.029,CST-1368DR,5050,6507,13778,0.501,551
2021-12-16T10:41:42,42.805,6.029,CST-1368DR,5050,6509,13781,0.500,551
2021-12-16T10:44:44,42.805,6.029,CST-1368DR,5050,6508,13779,0.501,551
2021-12-16T10:47:46,42.805,6.029,CST-1368DR,5050,6508,13779,0.501,551
2021-12-16T10:50:47,42.805,6.029,CST-1368DR,5050,6508,13780,0.500,551
2021-12-16T10:53:49,42.805,6.029,CST-1368DR,5050,6507,13777,0.501,551
2021-12-16T10:56:50,42.805,6.029,CST-1368DR,5050,6507,13778,0.501,551
2021-12-16T10:59:52,42.805,6.029,CST-1368DR,5050,6507,13778,0.501,551
2021-12-16T11:02:53,42.805,6.029,CST-1368DR,5050,6507,13777,0.501,551
2021-12-16T11:05:55,42.805,6.029,CST-1368DR,5050,6507,13777,0.501,551
2021-12-16T11:08:57,42.805,6.029,CST-1368DR,5050,6507,13778,0.501,550
2021-12-16T11:11:58,42.805,6.029,CST-1368DR,5050,6508,13779,0.501,551
2021-12-16T11:15:00,42.805,6.029,CST-1368DR,5050,6507,13778,0.501,551
2021-12-16T11:18:01,42.805,6.029,CST-1368DR,5050,6507,13778,0.501,551
2021-12-16T11:21:03,42.805,6.029,CST-1368DR,5050,6506,13776,0.501,551
2021-12-16T11:24:05,42.805,6.029,CST-1368DR,5050,6506,13775,0.502,551
2021-12-16T11:27:06,42.805,6.029,CST-1368DR,5050,6507,13777,0.501,551
2021-12-16T11:30:08,42.805,6.029,CST-1368DR,5050,6506,13775,0.502,551
2021-12-16T11:33:09,42.805,6.029,CST-1368DR,5050,6506,13776,0.501,551
2021-12-16T11:36:11,42.805,6.029,CST-1368DR,5050,6506,13775,0.502,551
2021-12-16T11:39:12,42.805,6.029,CST-1368DR,5050,6506,13775,0.502,551
2021-12-16T11:42:14,42.805,6.029,CST-1368DR,5050,6507,13777,0.501,551
2021-12-16T11:45:16,42.805,6.029,CST-1368DR,5050,6505,13774,0.502,551
2021-12-16T11:48:17,42.805,6.029,CST-1368DR,5049,6505,13777,0.501,551
2021-12-16T11:51:19,42.805,6.029,CST-1368DR,5049,6505,13776,0.501,551
2021-12-16T11:54:20,42.805,6.029,CST-1368DR,5050,6505,13774,0.502,551
2021-12-16T11:57:22,42.805,6.029,CST-1368DR,5049,6504,13775,0.502,551
2021-12-16T12:00:24,42.805,6.029,CST-1368DR,5049,6505,13776,0.501,551
2021-12-16T12:03:25,42.805,6.029,CST-1368DR,5049,6505,13777,0.501,551
2021-12-16T12:06:27,42.805,6.029,CST-1368DR,5049,6505,13776,0.501,551
2021-12-16T12:09:28,42.805,6.029,CST-1368DR,5049,6504,13775,0.502,551
2021-12-16T12:12:30,42.805,6.029,CST-1368DR,5049,6503,13771,0.503,551
2021-12-16T12:15:31,42.805,6.029,CST-1368DR,5049,6504,13774,0.502,551
2021-12-16T12:18:33,42.805,6.029,CST-1368DR,5049,6502,13770,0.503,551
2021-12-16T12:21:35,42.805,6.029,CST-1368DR,5049,6505,13776,0.501,551
2021-12-16T12:24:36,42.805,6.029,CST-1368DR,5049,6505,13776,0.501,551
2021-12-16T12:27:38,42.805,6.029,CST-1368DR,5049,6504,13773,0.502,551
2021-12-16T12:30:39,42.805,6.029,CST-1368DR,5049,6504,13775,0.502,551
2021-12-16T12:33:41,42.805,6.029,CST-1368DR,5049,6504,13774,0.502,551
2021-12-16T12:36:42,42.805,6.029,CST-1368DR,5049,6505,13775,0.502,551
2021-12-16T12:39:44,42.805,6.029,CST-1368DR,5049,6503,13772,0.503,551
2021-12-16T12:42:46,42.805,6.029,CST-1368DR,5049,6504,13774,0.502,551
2021-12-16T12:45:47,42.805,6.029,CST-1368DR,5049,6503,13771,0.503,551
2021-12-16T12:48:49,42.805,6.029,CST-1368DR,5049,6505,13775,0.502,551
2021-12-16T12:51:50,42.805,6.029,CST-1368DR,5049,6503,13771,0.503,551
2021-12-16T12:54:52,42.805,6.029,CST-1368DR,5049,6505,13776,0.501,551
2021-12-16T12:57:54,42.805,6.029,CST-1368DR,5049,6503,13772,0.503,551
2021-12-16T13:00:55,42.805,6.029,CST-1368DR,5049,6504,13774,0.502,551
2021-12-16T13:03:57,42.805,6.029,CST-1368DR,5049,6505,13775,0.502,551
2021-12-16T13:06:58,42.805,6.029,CST-1368DR,5049,6503,13772,0.503,551
2021-12-16T13:10:00,42.805,6.029,CST-1368DR,5049,6500,13766,0.504,551
2021-12-16T13:13:01,42.805,6.029,CST-1368DR,5049,6503,13772,0.503,551
2021-12-16T13:16:03,42.805,6.029,CST-1368DR,5049,6504,13773,0.502,551
2021-12-16T13:19:05,42.805,6.029,CST-1368DR,5049,6503,13772,0.503,551
2021-12-16T13:22:06,42.805,6.029,CST-1368DR,5049,6502,13770,0.503,551
2021-12-16T13:25:08,42.805,6.029,CST-1368DR,5049,6503,13771,0.503,551
2021-12-16T13:28:09,42.805,6.029,CST-1368DR,5049,6492,13749,0.509,551
2021-12-16T13:31:11,42.805,6.029,CST-1368DR,5049,6503,13771,0.503,551
2021-12-16T13:34:13,42.805,6.029,CST-1368DR,5049,6503,13772,0.503,551
2021-12-16T13:37:14,42.805,6.029,CST-1368DR,5049,6503,13771,0.503,551
2021-12-16T13:40:16,42.805,6.029,CST-1368DR,5049,6503,13772,0.503,551
2021-12-16T13:43:17,42.805,6.029,CST-1368DR,5049,6502,13770,0.503,551
2021-12-16T13:46:19,42.805,6.029,CST-1368DR,5049,6503,13771,0.503,551
2021-12-16T13:49:20,42.805,6.029,CST-1368DR,5049,6503,13771,0.503,551
2021-12-16T13:52:22,42.805,6.029,CST-1368DR,5049,6503,13771,0.503,551
2021-12-16T13:55:24,42.805,6.029,CST-1368DR,5049,6503,13771,0.503,551
2021-12-16T13:58:25,42.805,6.029,CST-1368DR,5049,6503,13771,0.503,551
2021-12-16T14:01:27,42.805,6.029,CST-1368DR,5049,6503,13771,0.503,551
2021-12-16T14:04:28,42.805,6.029,CST-1368DR,5049,6503,13772,0.503,551
2021-12-16T14:07:30,42.805,6.029,CST-1368DR,5049,6503,13771,0.503,551
2021-12-16T14:10:31,42.805,6.029,CST-1368DR,5048,6502,13773,0.502,551
2021-12-16T14:13:33,42.805,6.029,CST-1368DR,5049,6502,13770,0.503,551
2021-12-16T14:16:35,42.805,6.029,CST-1368DR,5048,6502,13771,0.503,551
2021-12-16T14:19:36,42.805,6.029,CST-1368DR,5048,6503,13774,0.502,551
2021-12-16T14:22:38,42.805,6.029,CST-1368DR,5048,6501,13770,0.503,551
2021-12-16T14:25:39,42.805,6.029,CST-1368DR,5048,6502,13772,0.503,551
2021-12-16T14:28:41,42.805,6.029,CST-1368DR,5048,6502,13772,0.503,551
2021-12-16T14:31:43,42.805,6.029,CST-1368DR,5048,6502,13771,0.503,551
2021-12-16T14:34:44,42.805,6.029,CST-1368DR,5048,6501,13770,0.503,551
2021-12-16T14:37:46,42.805,6.029,CST-1368DR,5048,6502,13771,0.503,551
2021-12-16T14:40:47,42.805,6.029,CST-1368DR,5048,6501,13770,0.503,551
2021-12-16T14:43:49,42.805,6.029,CST-1368DR,5048,6502,13773,0.502,551
2021-12-16T14:46:50,42.805,6.029,CST-1368DR,5048,6501,13771,0.503,551
2021-12-16T14:49:52,42.805,6.029,CST-1368DR,5048,6502,13773,0.502,551
2021-12-16T14:52:54,42.805,6.029,CST-1368DR,5048,6501,13770,0.503,551
2021-12-16T14:55:55,42.805,6.029,CST-1368DR,5048,6502,13772,0.503,551
2021-12-16T14:58:57,42.805,6.029,CST-1368DR,5048,6503,13774,0.502,551
2021-12-16T15:01:58,42.805,6.029,CST-1368DR,5048,6502,13772,0.503,551
2021-12-16T15:05:00,42.805,6.029,CST-1368DR,5048,6502,13772,0.503,551
2021-12-16T15:08:02,42.805,6.029,CST-1368DR,5048,6501,13771,0.503,551
2021-12-16T15:11:03,42.805,6.029,CST-1368DR,5048,6502,13771,0.503,550
2021-12-16T15:14:05,42.805,6.029,CST-1368DR,5048,6500,13768,0.504,551
2021-12-16T15:17:06,42.805,6.029,CST-1368DR,5048,6502,13773,0.502,551
2021-12-16T15:20:08,42.805,6.029,CST-1368DR,5048,6502,13772,0.503,551
2021-12-16T15:23:09,42.805,6.029,CST-1368DR,5048,6502,13772,0.503,551
2021-12-16T15:26:11,42.805,6.029,CST-1368DR,5048,6502,13772,0.503,551
2021-12-16T15:29:13,42.805,6.029,CST-1368DR,5048,6502,13771,0.503,551
2021-12-16T15:32:14,42.805,6.029,CST-1368DR,5048,6501,13770,0.503,551
2021-12-16T15:35:16,42.805,6.029,CST-1368DR,5048,6502,13772,0.503,551
2021-12-16T15:38:17,42.805,6.029,CST-1368DR,5048,6502,13771,0.503,551
2021-12-16T15:41:19,42.805,6.029,CST-1368DR,5048,6501,13771,0.503,551
2021-12-16T15:44:20,42.805,6.029,CST-1368DR,5048,6501,13769,0.504,551
2021-12-16T15:47:22,42.805,6.029,CST-1368DR,5048,6502,13771,0.503,551
2021-12-16T15:50:24,42.805,6.029,CST-1368DR,5048,6501,13771,0.503,551
2021-12-16T15:53:25,42.805,6.029,CST-1368DR,5048,6502,13771,0.503,551
2021-12-16T15:56:27,42.805,6.029,CST-1368DR,5048,6501,13769,0.504,551
2021-12-16T15:59:28,42.805,6.029,CST-1368DR,5048,6501,13769,0.504,551
2021-12-16T16:02:30,42.805,6.029,CST-1368DR,5048,6501,13771,0.503,551
2021-12-16T16:05:32,42.805,6.029,CST-1368DR,5048,6501,13771,0.503,551
2021-12-16T16:08:33,42.805,6.029,CST-1368DR,5048,6500,13768,0.504,551
2021-12-16T16:11:35,42.805,6.029,CST-1368DR,5048,6501,13770,0.503,551
2021-12-16T16:14:36,42.805,6.029,CST-1368DR,5048,6501,13770,0.503,551
2021-12-16T16:17:38,42.805,6.029,CST-1368DR,5048,6501,13770,0.503,551
2021-12-16T16:20:39,42.805,6.029,CST-1368DR,5048,6501,13770,0.503,551
2021-12-16T16:23:41,42.805,6.029,CST-1368DR,5048,6499,13766,0.504,551
2021-12-16T16:26:43,42.805,6.029,CST-1368DR,5048,6499,13767,0.504,551
2021-12-16T16:29:44,42.805,6.029,CST-1368DR,5048,6499,13767,0.504,551
2021-12-16T16:32:46,42.805,6.029,CST-1368DR,5048,6499,13767,0.504,551
2021-12-16T16:35:47,42.805,6.029,CST-1368DR,5048,6500,13768,0.504,551
2021-12-16T16:38:49,42.805,6.029,CST-1368DR,5048,6500,13768,0.504,551
2021-12-16T16:41:51,42.805,6.029,CST-1368DR,5048,6501,13769,0.504,551
2021-12-16T16:44:52,42.805,6.029,CST-1368DR,5048,6498,13764,0.505,551
2021-12-16T16:47:54,42.805,6.029,CST-1368DR,5048,6500,13769,0.504,551
2021-12-16T16:50:55,42.805,6.029,CST-1368DR,5048,6500,13768,0.504,551